TimeMST,TemperatureF,Dew PointF,Humidity,Sea Level PressureIn,VisibilityMPH,Wind Direction,Wind SpeedMPH,Gust SpeedMPH,PrecipitationIn,Events,Conditions,WindDirDegrees,DateUTC
12:53 AM,15.1,9.0,77,30.02,10.0,SSE,3.5,-,N/A,,Overcast,150,2012-12-10 07:53:00
1:53 AM,16.0,10.0,77,29.99,10.0,Calm,Calm,-,N/A,,Overcast,0,2012-12-10 08:53:00
2:53 AM,19.9,12.0,71,29.97,10.0,SW,5.8,-,N/A,,Overcast,230,2012-12-10 09:53:00
3:53 AM,21.9,12.9,68,29.97,10.0,SSW,4.6,-,N/A,,Overcast,210,2012-12-10 10:53:00
4:53 AM,21.0,14.0,74,30.00,9.0,East,3.5,-,0.00,Snow,Light Snow,80,2012-12-10 11:53:00
5:35 AM,23.0,17.6,80,29.80,2.0,SE,5.8,-,0.00,Snow,Light Snow,140,2012-12-10 12:35:00
5:45 AM,23.0,19.4,86,29.80,3.0,SSE,3.5,-,0.00,Snow,Light Snow,160,2012-12-10 12:45:00
5:53 AM,23.0,19.9,88,29.98,7.0,South,4.6,-,0.00,Snow,Light Snow,170,2012-12-10 12:53:00
6:53 AM,25.0,21.9,88,29.98,10.0,South,4.6,-,0.00,,Overcast,170,2012-12-10 13:53:00
7:53 AM,27.0,19.9,75,29.98,10.0,NE,5.8,-,N/A,,Overcast,50,2012-12-10 14:53:00
8:53 AM,30.9,18.0,59,29.97,10.0,North,13.8,19.6,N/A,,Overcast,350,2012-12-10 15:53:00
9:49 AM,28.4,24.8,86,29.85,1.8,WNW,24.2,-,0.00,Snow,Light Snow,300,2012-12-10 16:49:00
9:53 AM,28.9,24.1,82,30.01,1.5,NW,23.0,-,0.00,Snow,Light Snow,310,2012-12-10 16:53:00
10:02 AM,28.4,24.8,86,29.85,1.2,NW,24.2,-,0.00,Snow,Light Snow,310,2012-12-10 17:02:00
10:28 AM,28.4,24.8,86,29.87,3.0,NW,21.9,27.6,0.00,Snow,Light Snow,320,2012-12-10 17:28:00
10:51 AM,28.4,23.0,80,29.87,10.0,NW,21.9,31.1,0.00,,Mostly Cloudy,310,2012-12-10 17:51:00
10:53 AM,28.9,23.0,78,30.02,10.0,NW,20.7,31.1,0.00,,Mostly Cloudy,310,2012-12-10 17:53:00
11:53 AM,30.0,21.9,72,30.01,10.0,NW,23.0,-,N/A,,Mostly Cloudy,320,2012-12-10 18:53:00
12:53 PM,30.0,21.0,69,30.00,10.0,NW,25.3,33.4,N/A,,Overcast,310,2012-12-10 19:53:00
1:53 PM,28.9,21.9,75,30.01,10.0,NW,23.0,-,0.00,,Overcast,310,2012-12-10 20:53:00
2:15 PM,28.4,23.0,80,29.88,4.0,NW,18.4,-,0.00,Snow,Light Snow,320,2012-12-10 21:15:00
2:24 PM,28.4,23.0,80,29.87,7.0,NW,18.4,-,0.00,Snow,Light Snow,310,2012-12-10 21:24:00
2:53 PM,28.0,21.0,75,30.01,10.0,NW,23.0,29.9,0.00,,Partly Cloudy,320,2012-12-10 21:53:00
3:53 PM,27.0,19.0,72,30.01,10.0,WNW,15.0,-,N/A,,Scattered Clouds,300,2012-12-10 22:53:00
4:53 PM,25.0,14.0,63,30.03,10.0,WNW,15.0,-,N/A,,Clear,290,2012-12-10 23:53:00
5:53 PM,23.0,12.9,65,30.03,10.0,West,10.4,-,N/A,,Clear,270,2012-12-11 00:53:00
6:53 PM,26.1,12.9,58,30.01,10.0,West,6.9,-,N/A,,Overcast,280,2012-12-11 01:53:00
7:53 PM,18.0,10.0,71,30.03,10.0,West,8.1,-,N/A,,Scattered Clouds,270,2012-12-11 02:53:00
8:53 PM,25.0,10.9,55,30.00,10.0,WNW,10.4,-,N/A,,Overcast,290,2012-12-11 03:53:00
9:53 PM,25.0,14.0,63,30.01,10.0,WNW,10.4,-,N/A,,Overcast,290,2012-12-11 04:53:00
10:53 PM,24.1,12.0,60,30.01,10.0,West,10.4,-,N/A,,Partly Cloudy,280,2012-12-11 05:53:00
11:53 PM,19.0,10.0,68,30.01,10.0,West,10.4,-,N/A,,Scattered Clouds,260,2012-12-11 06:53:00